INTELSAT 904 (IS-904)

Last updated on Fri Dec 19 2025 00:02:48 GMT+0000 (Coordinated Universal Time)

1 27380U 02007A 25352.47638747 -.00000206 00000+0 00000+0 0 9999 2 27380 6.4682 71.3668 0001708 246.0114 269.9605 1.00271566 49955
UTC large
Height (km)
Speed (km/s)
/
Latitude / Longitude
Inclination (degrees)
Orbital Period (minutes)
Azimuth
Elevation
Range (km)
Doppler Factor

Next 0 passes for location: London (51.5072 / 0.1276)

Sorry there are no passes over London.